Location: Voyageurs National Park
(48.5020°N, 92.9292°W)
Time: 05:05:47
(UTC-05:00)

PCSat - Visible Passes

Search period start: 29 April 2016 00:00
Search period end: 09 May 2016 00:00
Orbit: 785 x 796 km, 67.1° (Epoch: 28 April)

Date Brightness Start Highest point End Pass type
(mag) Time Alt. Az. Time Alt. Az. Time Alt. Az.
29 Apr 9.9 01:33:40 10° NNW 01:39:05 63° NE 01:40:20 49° ESE visible
29 Apr 10.9 03:17:45 10° NW 03:21:00 23° W 03:21:00 23° W visible
29 Apr 12.4 21:36:26 10° NNW 21:37:36 11° N 21:38:46 10° N visible
29 Apr 12.0 23:20:06 10° NNW 23:23:27 16° NNE 23:26:48 10° ENE visible
30 Apr 10.3 01:02:53 10° NNW 01:08:11 49° NE 01:09:48 37° E visible
30 Apr 10.5 02:46:37 10° NW 02:50:29 30° W 02:50:29 30° W visible
30 Apr 12.4 21:04:56 10° NNW 21:06:20 11° N 21:07:47 10° N visible
30 Apr 12.1 22:49:23 10° NNW 22:52:17 14° NNE 22:55:10 10° NE visible
01 May 10.7 00:32:07 10° NNW 00:37:15 39° NE 00:39:21 28° E visible
01 May 10.1 02:15:36 10° NW 02:20:02 41° W 02:20:02 41° W visible
01 May 12.1 22:18:40 10° N 22:21:05 13° NNE 22:23:30 10° NE visible
02 May 11.0 00:01:23 10° NNW 00:06:16 32° NE 00:08:59 21° E visible
02 May 9.7 01:44:39 10° NW 01:49:40 56° WSW 01:49:40 56° WSW visible
02 May 12.2 21:47:55 10° N 21:49:52 12° NNE 21:51:49 10° NNE visible
02 May 11.3 23:30:39 10° NNW 23:35:14 27° NE 23:38:39 15° E visible
03 May 9.4 01:13:45 10° NW 01:19:12 75° WSW 01:19:21 75° SW visible
03 May 11.7 02:59:26 10° WNW 03:00:02 11° W 03:00:02 11° W visible
03 May 12.2 21:17:07 10° N 21:18:37 11° N 21:20:09 10° NNE visible
03 May 11.5 22:59:56 10° NNW 23:04:11 22° NNE 23:08:22 10° E visible
04 May 9.5 00:42:54 10° NW 00:48:23 85° NE 00:49:04 69° SE visible
04 May 11.4 02:27:38 10° WNW 02:29:45 16° W 02:29:45 16° W visible
04 May 11.7 22:29:14 10° NNW 22:33:05 19° NNE 22:36:56 10° ENE visible
05 May 9.7 00:12:06 10° NNW 00:17:32 66° NE 00:18:49 50° ESE visible
05 May 11.1 01:56:16 10° WNW 01:59:31 22° W 01:59:31 22° W visible
05 May 11.8 21:58:31 10° NNW 22:01:57 17° NNE 22:05:23 10° ENE visible
05 May 10.1 23:41:19 10° NNW 23:46:38 52° NE 23:48:37 35° ESE visible
06 May 10.6 01:25:07 10° NW 01:29:19 30° W 01:29:19 30° W visible
06 May 11.9 21:27:48 10° NNW 21:30:46 15° NNE 21:33:46 10° NE visible
06 May 10.5 23:10:33 10° NNW 23:15:42 41° NE 23:18:26 24° E visible
07 May 10.2 00:54:04 10° NW 00:59:08 41° WSW 00:59:09 41° WSW visible
07 May 10.8 22:39:48 10° NNW 22:44:44 33° NE 22:48:18 17° E visible
08 May 9.7 00:23:06 10° NW 00:28:25 54° WSW 00:29:00 51° SW visible
08 May 11.1 22:09:04 10° NNW 22:13:43 27° NE 22:18:11 11° E visible
